Alexandria, MN

6:20 AM CDT on October 21, 2017 (GMT -0500)
Chandler

Weather History for KAXN - October, 2013

Change the Weather History Date:

Wednesday, October 2, 2013

  Actual Average Record
Temperature  
Mean Temperature 55 °F -  
Max Temperature 68 °F 62 °F 90 °F (1953)
Min Temperature 44 °F 40 °F 24 °F (1974)
Degree Days  
Heating Degree Days 10    
Growing Degree Days 5 (Base 50)    
Moisture  
Dew Point 45 °F    
Average Humidity 75    
Maximum Humidity 100    
Minimum Humidity 32    
Precipitation  
Precipitation 0.94 in - - ()
Sea Level Pressure  
Sea Level Pressure 29.97 in    
Wind  
Wind Speed 7 mph (ENE)    
Max Wind Speed 16 mph    
Max Gust Speed 25 mph    
Visibility 8 miles    
Events Rain , Thunderstorm    
Averages and records for this station are not official NWS values.
T = Trace of Precipitation, MM = Missing Value Source: NWS Daily Summary

Daily Weather History Graph

Daily Weather History Graph

Search for Another Location

Airport or City:

Trip Planner

Search our weather history database for the weather conditions in past years. The results will help you decide how hot, cold, wet, or windy it might be!

Date:

Astronomy

Oct. 02, 2013 Rise Set
Actual Time 7:21 AM CDT 6:59 PM CDT
Civil Twilight 6:51 AM CDT 7:28 PM CDT
Nautical Twilight 6:17 AM CDT 8:03 PM CDT
Astronomical Twilight 5:42 AM CDT 8:38 PM CDT
Moon 4:49 AM CDT (10/2) 5:40 PM CDT (10/2)
Length of Visible Light 12h 37m
Length of Day
11h 37m
Waning Crescent, 6% of the Moon is Illuminated
Oct 2
Waning Crescent
Oct 4
New
Oct 11
First Quarter
Oct 18
Full
Oct 26
Last Quarter

Hourly Weather History & Observations

Time (CDT) Temp. Dew Point Humidity Pressure Visibility Wind Dir Wind Speed Gust Speed Precip Events Conditions
12:53 AM 51.1 °F 37.9 °F 61% 30.02 in 10.0 mi WSW 3.5 mph - N/A   Clear
1:53 AM 46.9 °F 39.0 °F 74% 30.03 in 10.0 mi Calm Calm - N/A   Clear
2:53 AM 46.9 °F 39.9 °F 77% 30.03 in 10.0 mi Calm Calm - N/A   Clear
3:53 AM 46.0 °F 39.0 °F 76% 30.02 in 10.0 mi Calm Calm - N/A   Clear
4:53 AM 45.0 °F 41.0 °F 86% 30.02 in 10.0 mi Calm Calm - N/A   Clear
5:53 AM 44.1 °F 39.0 °F 82% 30.03 in 10.0 mi Calm Calm - N/A   Clear
6:53 AM 48.0 °F 37.9 °F 68% 30.02 in 10.0 mi SE 4.6 mph - N/A   Scattered Clouds
7:53 AM 51.1 °F 39.9 °F 66% 30.02 in 10.0 mi SSE 8.1 mph - N/A   Scattered Clouds
8:53 AM 55.9 °F 39.9 °F 55% 30.02 in 10.0 mi SE 9.2 mph - N/A   Clear
9:53 AM 62.1 °F 39.9 °F 44% 30.02 in 10.0 mi SE 9.2 mph - N/A   Clear
10:53 AM 64.0 °F 39.9 °F 41% 30.02 in 10.0 mi SE 8.1 mph - N/A   Clear
11:53 AM 66.0 °F 39.0 °F 37% 30.01 in 10.0 mi SE 8.1 mph - N/A   Partly Cloudy
12:53 PM 66.9 °F 36.0 °F 32% 29.97 in 10.0 mi SE 12.7 mph - N/A   Mostly Cloudy
1:51 PM 64.4 °F 39.2 °F 40% 29.91 in 10.0 mi ENE 6.9 mph - 0.00 in Rain , Thunderstorm Light Rain
1:53 PM 64.9 °F 39.9 °F 40% 29.94 in 10.0 mi NE 5.8 mph - 0.00 in Rain , Thunderstorm Light Rain
2:12 PM 57.2 °F 48.2 °F 72% 29.99 in 1.8 mi South 8.1 mph - 0.11 in Rain , Thunderstorm Heavy Thunderstorms and Rain
2:26 PM 55.4 °F 48.2 °F 77% 29.95 in 2.5 mi ESE 10.4 mph - 0.18 in Rain , Thunderstorm Thunderstorms and Rain
2:33 PM 55.4 °F 48.2 °F 77% 29.98 in 5.0 mi SSE 8.1 mph - 0.20 in Rain , Thunderstorm Rain
2:53 PM 55.9 °F 46.9 °F 72% 29.93 in 9.0 mi ESE 12.7 mph - 0.30 in Rain , Thunderstorm Light Thunderstorms and Rain
3:08 PM 53.6 °F 48.2 °F 82% 29.94 in 2.0 mi NNE 9.2 mph - 0.08 in Rain , Thunderstorm Thunderstorms and Rain
3:16 PM 53.6 °F 48.2 °F 82% 29.98 in 6.0 mi NNW 10.4 mph - 0.11 in Rain , Thunderstorm Thunderstorms and Rain
3:26 PM 53.6 °F 50.0 °F 88% 30.02 in 1.8 mi NW 10.4 mph 19.6 mph 0.22 in Rain , Thunderstorm Heavy Thunderstorms and Rain
3:32 PM 51.8 °F 51.8 °F 100% 29.93 in 0.8 mi ENE 15.0 mph - 0.40 in Rain , Thunderstorm Heavy Thunderstorms and Rain
3:37 PM 53.6 °F 51.8 °F 94% 29.92 in 1.0 mi ENE 16.1 mph - 0.46 in Rain , Thunderstorm Heavy Thunderstorms and Rain
3:41 PM 53.6 °F 51.8 °F 94% 29.93 in 1.5 mi NNE 10.4 mph - 0.48 in Rain , Thunderstorm Heavy Thunderstorms and Rain
3:46 PM 53.6 °F - N/A% 29.94 in 3.0 mi East 9.2 mph - 0.49 in Rain , Thunderstorm Light Thunderstorms and Rain
3:53 PM 53.1 °F - N/A% 29.95 in 5.0 mi ENE 11.5 mph - 0.50 in Rain , Thunderstorm Rain
4:09 PM 51.8 °F - N/A% 29.91 in 5.0 mi NE 12.7 mph - 0.02 in Rain Light Rain
4:29 PM 51.8 °F - N/A% 29.91 in 5.0 mi NNE 12.7 mph - 0.04 in Rain , Thunderstorm Light Rain
4:53 PM 53.1 °F 53.1 °F 100% 29.94 in 10.0 mi NE 11.5 mph - 0.07 in Rain , Thunderstorm Light Rain
5:41 PM 53.6 °F 53.6 °F 100% 29.93 in 8.0 mi NE 15.0 mph 21.9 mph 0.06 in Rain Light Rain
5:53 PM 53.1 °F 53.1 °F 100% 29.96 in 10.0 mi NNE 16.1 mph 25.3 mph 0.06 in Rain Light Rain
6:53 PM 52.0 °F - N/A% 29.94 in 10.0 mi NE 15.0 mph 23.0 mph 0.01 in   Overcast
7:53 PM 53.1 °F - N/A% 29.94 in 10.0 mi ENE 15.0 mph - 0.00 in   Overcast
8:53 PM 53.1 °F 52.0 °F 96% 29.94 in 10.0 mi ENE 10.4 mph - N/A   Overcast
9:53 PM 52.0 °F 52.0 °F 100% 29.94 in 10.0 mi ENE 10.4 mph - N/A   Mostly Cloudy
10:53 PM 51.1 °F 48.9 °F 92% 29.95 in 10.0 mi NE 8.1 mph - N/A   Clear
11:53 PM 50.0 °F 48.9 °F 96% 29.94 in 10.0 mi NNE 8.1 mph - N/A   Clear